Tracking 20232 objects as of 18-Jan-2020
HD Live streaming from Space Station
objects crossing your sky now

COSMOS 2251 DEB

Track COSMOS 2251 DEB now!
10-day predictions


NORAD ID: 34122
Int'l Code: 1993-036KT
Perigee: 669.6 km
Apogee: 833.2 km
Inclination: 74.0 °
Period: 99.7 minutes
Semi major axis: 7122 km
RCS: 0.0293 m2 (small)
Launch date: June 16, 1993
Source: Commonwealth of Independent States (former USSR) (CIS)
Launch site: PLESETSK MISSILE AND SPACE COMPLEX (PKMTR)

Note: This is SATELLITE DEBRIS
aabbcc
Your satellite tracking list
Your tracking list is empty




NASA's NSSDC Master Catalog

Two Line Element Set (TLE):
1 34122U 93036KT  20018.63738622 +.00000324 +00000-0 +95120-4 0  9991
2 34122 074.0427 205.0174 0114894 284.7143 146.6712 14.44316746574488
Source of the keplerian elements: AFSPC